User: anonymous   Login
Location: La Comballaz
(46.3780°N, 7.0817°E)
Time: 02:43:26
(UTC+00:00)
Language:

XW-2C - Orbit

View from above orbital plane
View from above orbital plane
View from above satellite
View from above satellite

Ground track
Ground track

The orbit data is extracted from the following two-line orbital elements,

1 40906U 15049H   22343.58138262  .00007044  00000-0  31858-3 0  9990
2 40906  97.4954 345.8579 0014823 104.6033 350.0007 15.21138293399523
Epoch (UTC): 09 December 2022 13:57:11
Eccentricity: 0.0014823
inclination: 97.4954°
perigee height: 492 km
apogee height: 512 km
right ascension of ascending node: 345.8579°
argument of perigee: 104.6033°
revolutions per day: 15.21138293
mean anomaly at epoch: 350.0007°
orbit number at epoch: 39952

The dashed part of the orbit path shows where the satellite is in the earth's shadow,  

DLR